This is the latest recevied weather packets stored in our database for station/object KR4KUV. If no packets are shown the sender has not sent any weather packets the latest 10 day(s).
| Time | Temp. | Humidity | Pressure | Rain* | Wind** | Luminosity | Snow |
|---|---|---|---|---|---|---|---|
| 1787745650 | 18.89° C | 99% | 1020.9 hPa | 0 mm | - | 40 W/m² | - |
| 1787745345 | 18.33° C | 99% | 1021.1 hPa | 0 mm | - | 40 W/m² | - |
| 1787745044 | 18.33° C | 99% | 1021.2 hPa | 0 mm | - | 30 W/m² | - |
| 1787744740 | 18.33° C | 99% | 1021.1 hPa | 0 mm | - | 26 W/m² | - |
| 1787744437 | 18.33° C | 99% | 1020.6 hPa | 0 mm | - | 20 W/m² | - |
| 1787744132 | 18.33° C | 99% | 1020.6 hPa | 0 mm | - | 15 W/m² | - |
| 1787743827 | 18.33° C | 99% | 1020.7 hPa | 0 mm | - | 13 W/m² | - |
| 1787743527 | 17.78° C | 99% | 1020.5 hPa | 0 mm | - | 11 W/m² | - |
| 1787743223 | 17.78° C | 99% | 1020.5 hPa | 0 mm | - | 10 W/m² | - |
| 1787742918 | 18.33° C | 99% | 1020.4 hPa | 0 mm | - | 8 W/m² | - |
| 1787742614 | 17.78° C | 99% | 1020.4 hPa | 0 mm | - | 6 W/m² | - |
| 1787742309 | 17.78° C | 99% | 1020.3 hPa | 0 mm | - | 5 W/m² | - |
| 1787742004 | 17.78° C | 99% | 1020.3 hPa | 0 mm | - | 4 W/m² | - |
| 1787741700 | 17.78° C | 99% | 1020.2 hPa | 0 mm | - | 2 W/m² | - |
| 1787741396 | 17.78° C | 99% | 1020.1 hPa | 0 mm | - | 1 W/m² | - |
| 1787741095 | 17.78° C | 99% | 1020.1 hPa | 0 mm | - | 1 W/m² | - |
| 1787740789 | 17.78° C | 99% | 1019.8 hPa | 0 mm | - | 0 W/m² | - |
| 1787740488 | 17.78° C | 99% | 1020 hPa | 0 mm | - | 0 W/m² | - |
| 1787740184 | 17.78° C | 99% | 1020 hPa | 0 mm | - | 0 W/m² | - |
| 1787739879 | 17.78° C | 99% | 1020 hPa | 0 mm | - | 0 W/m² | - |
| 1787739576 | 17.78° C | 99% | 1019.9 hPa | 0 mm | - | 0 W/m² | - |
| 1787739276 | 17.78° C | 99% | 1019.9 hPa | 0 mm | - | 0 W/m² | - |
| 1787738972 | 17.78° C | 99% | 1019.9 hPa | 0 mm | - | 0 W/m² | - |
| 1787738667 | 17.78° C | 99% | 1019.9 hPa | 0 mm | - | 0 W/m² | - |
| 1787738366 | 17.22° C | 99% | 1019.8 hPa | 0 mm | - | 0 W/m² | - |
* Rain latest hour (hover to see other rain measurements)
** Current wind speed in m/s (hover to see current wind gust speed)